Location: Capel Gartheli
(52.1833°N, 4.0667°W)
Time: 18:23:28
(UTC+00:00)

Cosmos 2233 Rocket - Pass Details

Date: 18 February 2020
Orbit: 954 x 990 km, 82.9° (Epoch: 31 March)

Event Time Altitude Azimuth Distance (km) Brightness Sun altitude
Rises 06:37:53 0° 348° (NNW) 3,681 6.8 -8.1°
Reaches altitude 10° 06:40:24 10° 348° (NNW) 2,734 6.1 -7.8°
Maximum altitude 06:46:40 79° 264° (W) 1,004 4.0 -6.8°
Drops below altitude 10° 06:52:57 10° 178° (S) 2,738 6.5 -5.9°
Sets 06:55:27 0° 177° (S) 3,685 7.2 -5.5°
